Fort Nelson, British Columbia

6:16 AM PDT on September 29, 2016 (GMT -0700)
Fort Nelson

Weather History for CYYE - September, 2012

Change the Weather History Date:

Tuesday, September 4, 2012

  Actual Average Record
Temperature  
Mean Temperature 54 °F -  
Max Temperature 67 °F 60 °F 79 °F (2013)
Min Temperature 41 °F 40 °F 34 °F (2016)
Degree Days  
Heating Degree Days 11    
Growing Degree Days 4 (Base 50)    
Moisture  
Dew Point 42 °F    
Average Humidity 63    
Maximum Humidity 87    
Minimum Humidity 44    
Precipitation  
Precipitation 0.00 in - - ()
Sea Level Pressure  
Sea Level Pressure 29.94 in    
Wind  
Wind Speed 6 mph ()    
Max Wind Speed 18 mph    
Max Gust Speed 25 mph    
Visibility 15.0 miles    
Events Rain    
Averages and records for this station are not official NWS values.
T = Trace of Precipitation, MM = Missing Value Source: Averaged Metar Reports

Daily Weather History Graph

Daily Weather History Graph

Search for Another Location

Airport or City:

Trip Planner

Search our weather history database for the weather conditions in past years. The results will help you decide how hot, cold, wet, or windy it might be!

Date:

Astronomy

Sep. 04, 2012 Rise Set
Actual Time 6:16 AM PDT 8:00 PM PDT
Civil Twilight 5:33 AM PDT 8:42 PM PDT
Nautical Twilight 4:40 AM PDT 9:35 PM PDT
Astronomical Twilight 3:35 AM PDT 10:39 PM PDT
Moon 8:37 PM PDT (9/4) 11:44 AM PDT (9/4)
Length of Visible Light 15h 08m
Length of Day
13h 44m
Waning Gibbous, 83% of the Moon is Illuminated
Sep 4
Waning Gibbous
Sep 8
Last Quarter
Sep 15
New
Sep 22
First Quarter
Sep 29
Full

Hourly Weather History & Observations

Time (PDT) Temp. Windchill Dew Point Humidity Pressure Visibility Wind Dir Wind Speed Gust Speed Precip Events Conditions
12:00 AM 46.4 °F 45.2 °F 39.2 °F 76% 30.01 in 15.0 mi South 3.5 mph - N/A   Clear
1:00 AM 46.4 °F 43.5 °F 39.2 °F 76% 30.01 in 15.0 mi SSW 5.8 mph - N/A   Clear
2:00 AM 44.6 °F 42.2 °F 39.2 °F 81% 30.00 in 15.0 mi South 4.6 mph - N/A   Clear
3:00 AM 42.8 °F 41.1 °F 39.2 °F 87% 30.01 in 15.0 mi SSW 3.5 mph - N/A   Clear
4:00 AM 44.6 °F 42.2 °F 39.2 °F 81% 30.00 in 15.0 mi South 4.6 mph - N/A   Partly Cloudy
5:00 AM 44 °F - 38 °F 71% 30.00 in 15 mi South 5.8 mph - -   Mostly Cloudy
6:00 AM 42.8 °F 38.0 °F 37.4 °F 81% 29.99 in 15.0 mi South 8.1 mph - N/A   Mostly Cloudy
7:00 AM 42.8 °F 37.5 °F 35.6 °F 76% 29.97 in 30.0 mi South 9.2 mph - N/A   Mostly Cloudy
8:00 AM 42.8 °F 38.6 °F 35.6 °F 76% 29.97 in 30.0 mi South 6.9 mph - N/A   Mostly Cloudy
9:00 AM 46.4 °F 43.5 °F 37.4 °F 71% 29.95 in 30.0 mi South 5.8 mph - N/A   Mostly Cloudy
10:00 AM 53.6 °F - 39.2 °F 58% 29.94 in 30.0 mi South 8.1 mph - N/A   Mostly Cloudy
11:00 AM 55 °F - 41 °F 49% 29.94 in 28 mi SE 6.9 mph - -   Mostly Cloudy
11:00 AM 55.4 °F - 41.0 °F 58% 29.94 in 30.0 mi SE 6.9 mph - N/A   Mostly Cloudy
12:00 PM 59.0 °F - 44.6 °F 59% 29.92 in 30.0 mi South 8.1 mph - N/A   Mostly Cloudy
1:00 PM 60.8 °F - 46.4 °F 59% 29.92 in 30.0 mi SSW 5.8 mph - N/A   Mostly Cloudy
2:00 PM 62.6 °F - 48.2 °F 59% 29.90 in 30.0 mi South 5.8 mph - N/A   Mostly Cloudy
3:00 PM 64.4 °F - 48.2 °F 56% 29.90 in 30.0 mi SSE 3.5 mph - N/A   Mostly Cloudy
4:00 PM 64.4 °F - 50.0 °F 59% 29.90 in 30.0 mi South 4.6 mph - N/A   Mostly Cloudy
5:00 PM 67 °F - 50 °F 44% 29.89 in 28 mi ESE 4.6 mph - -   Scattered Clouds
5:00 PM 66.2 °F - 50.0 °F 56% 29.89 in 30.0 mi ESE 4.6 mph - N/A   Mostly Cloudy
5:35 PM - - - N/A% - 30.0 mi West 18.4 mph 25.3 mph N/A Rain Light Rain Showers
6:00 PM 62.6 °F - 48.2 °F 59% 29.92 in 30.0 mi SSW 5.8 mph - N/A   Mostly Cloudy
7:00 PM 62.6 °F - 46.4 °F 55% 29.91 in 30.0 mi SW 10.4 mph - N/A   Scattered Clouds
8:00 PM 60.8 °F - 42.8 °F 52% 29.91 in 30.0 mi SW 11.5 mph - N/A   Scattered Clouds
9:00 PM 60.8 °F - 41.0 °F 48% 29.92 in 15.0 mi WSW 15.0 mph - N/A   Partly Cloudy
10:00 PM 59.0 °F - 41.0 °F 51% 29.93 in 15.0 mi SW 11.5 mph - N/A   Clear
11:00 PM 57 °F - 42 °F 45% 29.93 in 15 mi SW 8.1 mph - -   Partly Cloudy
11:00 PM 57.2 °F - 41.0 °F 55% 29.93 in 15.0 mi SW 8.1 mph - N/A   Partly Cloudy